Weather in Krestovozdvizhenka

Russia / Amur Oblast     49°46′27″N   127°58′10″E
temp.,
°C
wind,
m/s
gust,
m/s
humid.,
%
clouds,
%
prec.,
mm/h
press.,
hPa
HPBL,
m
8 may, sat
sat800:00+9n3661100 0.0 996162
03:00+7n6124583 0.0 995440
06:00+6n6115291 0.1 996492
09:00+8nne7947100 0.1 997840
12:00+11n7839100 0.0 9971428
15:00+13nne783795 0.0 9962093
18:00+13nne4843100 0.0 9972041
21:00+8e3676100 0.3 999174
9 may, sun
sun900:00+6ene3578100 0.0 1000333
03:00+7nne4875100 0.0 1000822
06:00+6n61081100 0.0 1001661
09:00+6n6879100 0.0 10021003
12:00+6n5681100 0.1 1004970
15:00+6nnw5785100 0.4 1005781
18:00+7nnw4879100 0.1 1006496
21:00+7nnw2279100 0.1 100770
10 may, mon
mon1000:00+6nw2581100 0.5 1008156
03:00+6nw2486100 1.6 1009169
06:00+6nw2583100 0.3 1010190
09:00+7nw2472100 0.9 1011298
12:00+12ne135097 0.0 10111337
15:00+15ne2440100 0.0 10102090
18:00+14ese4346100 0.0 1011723
21:00+9se367766 0.0 1013108
11 may, tue
tue1100:00+7sse237826 0.0 101431
03:00+6s22800 0.0 101425
06:00+7sse3479100 0.0 101489
09:00+14sse4551100 0.0 1014570
12:00+18se663463 0.0 10121762
15:00+19se7830100 0.0 10102408
18:00+18se81136100 0.0 10071576
21:00+14sse71449100 0.0 1008671
12 may, wed
wed1200:00+12se91762100 0.0 1006746
03:00+11se81563100 0.1 1004750
06:00+11se81669100 0.9 10021335
09:00+13sse71071100 4.2 1001840
12:00+18sse8114198 1.4 9992775
15:00+13se81175100 2.6 997507
18:00+15sw8114982 0.7 9972028
21:00+10ssw486897 0.7 999170